Location: Fornova de Taro
(44.7000°N, 10.1000°E)
Time: 02:48:47
(UTC+00:00)

Cosmos 2366 rocket - Pass Details

Date: 26 May 2022
Orbit: 955 x 997 km, 82.9° (Epoch: 26 June)

Event Time Altitude Azimuth Distance (km) Brightness Sun altitude
Rises 02:38:05 0° 351° (N) 3,645 7.5 -9.8°
Reaches altitude 10° 02:40:35 10° 351° (N) 2,696 6.8 -9.4°
Maximum altitude 02:46:46 86° 264° (W) 969 4.0 -8.6°
Drops below altitude 10° 02:52:56 10° 176° (S) 2,698 6.0 -7.8°
Sets 02:55:26 0° 176° (S) 3,646 6.6 -7.5°
